West Palm Beach, FL

12:41 AM EST on December 11, 2019 (GMT -0500)
Palm Beach International

Weather History for KPBI - October, 2019

Change the Weather History Date:

Sunday, October 27, 2019

  Actual Average Record
Temperature  
Mean Temperature 80 °F 76 °F  
Max Temperature 86 °F 83 °F 90 °F (1997)
Min Temperature 74 °F 69 °F 52 °F (1890)
Degree Days  
Heating Degree Days 0 0  
Month to date heating degree days 0 0  
Since 1 July heating degree days 0 0  
Cooling Degree Days 15 11  
Month to date cooling degree days 456 370  
Year to date cooling degree days 4165 3578  
Growing Degree Days 30 (Base 50)    
Moisture  
Dew Point 75 °F    
Average Humidity 85    
Maximum Humidity 100    
Minimum Humidity 70    
Precipitation  
Precipitation 0.01 in 0.16 in 3.03 in (1915)
Month to date precipitation 5.16 4.57  
Year to date precipitation 53.15 53.64  
Snow  
Snow 0.00 in - - ()
Month to date snowfall 0.0  
Since 1 July snowfall 0.0  
Since 1 September snowfall 0.0  
Snow Depth 0.00 in    
Sea Level Pressure  
Sea Level Pressure 29.99 in    
Wind  
Wind Speed 7 mph (SSE)    
Max Wind Speed 16 mph    
Max Gust Speed 19 mph    
Visibility 10 miles    
Events Thunderstorm    
T = Trace of Precipitation, MM = Missing Value Source: NWS Daily Summary

Daily Weather History Graph

Daily Weather History Graph

Search for Another Location

Airport or City:

Astronomy

Oct. 27, 2019 Rise Set
Actual Time 7:26 AM EDT 6:41 PM EDT
Civil Twilight 7:02 AM EDT 7:05 PM EDT
Nautical Twilight 6:35 AM EDT 7:32 PM EDT
Astronomical Twilight 6:08 AM EDT 7:59 PM EDT
Moon 6:43 AM EDT (10/27) 6:43 PM EDT (10/27)
Length of Visible Light 12h 02m
Length of Day
11h 15m
Waning Crescent, 0% of the Moon is Illuminated
Oct 27
Waning Crescent
Oct 27
New
Nov 4
First Quarter
Nov 12
Full
Nov 19
Last Quarter

Hourly Weather History & Observations

Time (EDT) Temp. Heat Index Dew Point Humidity Pressure Visibility Wind Dir Wind Speed Gust Speed Precip Events Conditions
12:53 AM 77.0 °F - 75.0 °F 94% 29.99 in 10.0 mi South 4.6 mph - N/A   Partly Cloudy
1:53 AM 75.9 °F - 75.0 °F 97% 29.98 in 10.0 mi Calm Calm - N/A   Partly Cloudy
2:53 AM 77.0 °F - 73.9 °F 90% 29.97 in 10.0 mi Calm Calm - 0.00 in   Mostly Cloudy
3:53 AM 75.0 °F - 73.0 °F 94% 29.96 in 10.0 mi Calm Calm - N/A   Scattered Clouds
4:53 AM 75.9 °F - 75.0 °F 97% 29.95 in 10.0 mi SE 5.8 mph - 0.01 in   Scattered Clouds
5:53 AM 77.0 °F - 75.9 °F 96% 29.96 in 10.0 mi South 5.8 mph - N/A   Scattered Clouds
6:53 AM 75.9 °F - 75.0 °F 97% 29.97 in 10.0 mi SSE 5.8 mph - N/A   Scattered Clouds
7:53 AM 77.0 °F - 75.9 °F 96% 29.99 in 10.0 mi SSW 3.5 mph - N/A   Mostly Cloudy
8:53 AM 79.0 °F - 77.0 °F 94% 30.01 in 10.0 mi SSW 5.8 mph - N/A   Mostly Cloudy
9:53 AM 80.1 °F 85.8 °F 77.0 °F 90% 30.02 in 10.0 mi South 4.6 mph - N/A   Mostly Cloudy
10:53 AM 82.9 °F 90.2 °F 75.0 °F 77% 30.02 in 10.0 mi SSE 11.5 mph - N/A   Mostly Cloudy
11:53 AM 84.0 °F 91.9 °F 75.0 °F 74% 30.02 in 10.0 mi SSE 12.7 mph - N/A   Mostly Cloudy
12:53 PM 86.0 °F 95.1 °F 75.0 °F 70% 30.01 in 10.0 mi SSE 15.0 mph - N/A   Mostly Cloudy
1:53 PM 86.0 °F 95.1 °F 75.0 °F 70% 29.99 in 10.0 mi SSE 9.2 mph - N/A   Mostly Cloudy
2:53 PM 84.9 °F 94.1 °F 75.9 °F 74% 29.98 in 10.0 mi SE 11.5 mph - N/A   Mostly Cloudy
3:40 PM 84.9 °F 94.1 °F 75.9 °F 74% 29.97 in 10.0 mi SE 12.7 mph - N/A Thunderstorm Thunderstorm
3:53 PM 84.9 °F 93.3 °F 75.0 °F 72% 29.97 in 10.0 mi SE 13.8 mph - N/A Thunderstorm Thunderstorm
4:53 PM 78.1 °F - 71.1 °F 79% 29.99 in 10.0 mi West 6.9 mph - N/A Thunderstorm Thunderstorm
5:53 PM 79.0 °F - 71.1 °F 77% 29.98 in 10.0 mi Calm Calm - N/A Thunderstorm Thunderstorm
6:05 PM 80.1 °F 83.6 °F 71.1 °F 74% 29.98 in 10.0 mi Calm Calm - N/A   Mostly Cloudy
6:53 PM 81.0 °F 86.7 °F 75.0 °F 82% 29.98 in 10.0 mi SE 9.2 mph - N/A   Mostly Cloudy
7:53 PM 81.0 °F 86.7 °F 75.0 °F 82% 29.99 in 10.0 mi SSE 11.5 mph - N/A   Mostly Cloudy
8:53 PM 81.0 °F 87.3 °F 75.9 °F 85% 30.00 in 10.0 mi SSE 6.9 mph - N/A   Mostly Cloudy
9:53 PM 80.1 °F 85.1 °F 75.0 °F 85% 30.02 in 10.0 mi South 5.8 mph - N/A   Clear
10:53 PM 80.1 °F 85.1 °F 75.0 °F 85% 30.03 in 10.0 mi South 3.5 mph - N/A   Mostly Cloudy
11:53 PM 79.0 °F - 75.0 °F 88% 30.03 in 10.0 mi SSE 4.6 mph - N/A   Mostly Cloudy